Chattanooga, TN

8:29 AM EDT on May 27, 2017 (GMT -0400)
Lovell

Weather History for KCHA - June, 2013

Change the Weather History Date:

Sunday, June 9, 2013

  Actual Average Record
Temperature  
Mean Temperature 76 °F 75 °F  
Max Temperature 83 °F 86 °F 97 °F (1898)
Min Temperature 68 °F 64 °F 52 °F (1931)
Cooling Degree Days 11 10  
Month to date cooling degree days 100 83  
Year to date cooling degree days 276 279  
Since 1 June cooling degree days 100 83  
Growing Degree Days 25 (Base 50)    
Moisture  
Dew Point 69 °F    
Average Humidity 78    
Maximum Humidity 93    
Minimum Humidity 63    
Precipitation  
Precipitation 0.18 in 0.13 in 1.32 in (1950)
Month to date precipitation 1.29 1.14  
Year to date precipitation 35.96 23.96  
Snow  
Snow 0.00 in - - ()
Month to date snowfall 0.0  
Since 1 June snowfall 0.0  
Snow Depth 0.00 in    
Sea Level Pressure  
Sea Level Pressure 30.02 in    
Wind  
Wind Speed 2 mph (SSE)    
Max Wind Speed 15 mph    
Max Gust Speed 22 mph    
Visibility 7 miles    
Events Fog , Rain , Thunderstorm    
T = Trace of Precipitation, MM = Missing Value Source: NWS Daily Summary

Daily Weather History Graph

Daily Weather History Graph

Search for Another Location

Airport or City:

Trip Planner

Search our weather history database for the weather conditions in past years. The results will help you decide how hot, cold, wet, or windy it might be!

Date:

Astronomy

Jun. 09, 2013 Rise Set
Actual Time 6:26 AM EDT 8:54 PM EDT
Civil Twilight 5:56 AM EDT 9:23 PM EDT
Nautical Twilight 5:20 AM EDT 10:00 PM EDT
Astronomical Twilight 4:40 AM EDT 10:40 PM EDT
Moon 7:19 AM EDT (6/9) 9:43 PM EDT (6/9)
Length of Visible Light 15h 26m
Length of Day
14h 27m
New Moon, 1% of the Moon is Illuminated
Jun 9
New Moon
Jun 16
First Quarter
Jun 23
Full
Jun 30
Last Quarter
Jul 8
New

Hourly Weather History & Observations

Time (EDT) Temp. Heat Index Dew Point Humidity Pressure Visibility Wind Dir Wind Speed Gust Speed Precip Events Conditions
12:53 AM 70.0 °F - 66.0 °F 87% 30.06 in 10.0 mi Calm Calm - N/A   Clear
1:53 AM 69.1 °F - 66.0 °F 90% 30.05 in 10.0 mi Calm Calm - N/A   Clear
2:53 AM 69.1 °F - 66.0 °F 90% 30.06 in 10.0 mi Calm Calm - N/A   Scattered Clouds
3:53 AM 69.1 °F - 66.0 °F 90% 30.04 in 10.0 mi Calm Calm - N/A   Mostly Cloudy
4:53 AM 68.0 °F - 64.9 °F 90% 30.04 in 10.0 mi Calm Calm - N/A   Partly Cloudy
5:53 AM 68.0 °F - 66.0 °F 93% 30.06 in 7.0 mi Calm Calm - N/A   Mostly Cloudy
6:53 AM 68.0 °F - 66.0 °F 93% 30.07 in 6.0 mi Calm Calm - N/A Fog Mostly Cloudy
7:53 AM 70.0 °F - 66.9 °F 90% 30.06 in 6.0 mi Calm Calm - N/A Fog Mostly Cloudy
8:53 AM 72.0 °F - 66.9 °F 84% 30.08 in 7.0 mi Calm Calm - N/A   Mostly Cloudy
9:53 AM 75.0 °F - 68.0 °F 79% 30.07 in 7.0 mi Calm Calm - N/A   Mostly Cloudy
10:26 AM 75.2 °F - 68.0 °F 78% 30.08 in 7.0 mi SSE 6.9 mph - N/A   Mostly Cloudy
10:53 AM 77.0 °F - 68.0 °F 74% 30.06 in 7.0 mi South 9.2 mph - N/A   Overcast
11:53 AM 77.0 °F - 69.1 °F 76% 30.06 in 7.0 mi Variable 5.8 mph - 0.00 in   Overcast
12:53 PM 82.0 °F 85.9 °F 70.0 °F 67% 30.03 in 10.0 mi South 10.4 mph - N/A   Mostly Cloudy
1:53 PM 82.0 °F 84.9 °F 68.0 °F 62% 30.01 in 10.0 mi SSE 8.1 mph - N/A   Overcast
2:35 PM 71.6 °F - 66.2 °F 83% 30.07 in 1.0 mi SW 9.2 mph - 0.01 in Rain , Thunderstorm Thunderstorms and Rain
2:40 PM 71.6 °F - 66.2 °F 83% 30.06 in 2.0 mi SSW 8.1 mph - 0.06 in Rain , Thunderstorm Light Thunderstorms and Rain
2:53 PM 72.0 °F - 66.9 °F 84% 30.04 in 2.0 mi Calm Calm - 0.08 in Rain , Thunderstorm Light Thunderstorms and Rain
2:57 PM 71.6 °F - 66.2 °F 83% 30.06 in 3.0 mi Calm Calm - 0.00 in Rain Rain
3:53 PM 73.0 °F - 69.1 °F 87% 30.01 in 6.0 mi SSE 4.6 mph - 0.03 in Rain Light Rain
4:37 PM 73.4 °F - 69.8 °F 88% 30.02 in 1.8 mi Calm Calm - 0.02 in Rain Rain
4:45 PM 73.4 °F - 69.8 °F 88% 30.02 in 3.0 mi Calm Calm - 0.05 in Rain Light Rain
4:53 PM 73.0 °F - 69.1 °F 87% 30.00 in 3.0 mi Calm Calm - 0.05 in   Overcast
5:01 PM 73.4 °F - 69.8 °F 88% 30.02 in 7.0 mi Variable 3.5 mph - N/A   Overcast
5:27 PM 73.4 °F - 69.8 °F 88% 30.00 in 7.0 mi Calm Calm - 0.00 in Rain Light Rain
5:53 PM 75.0 °F - 70.0 °F 84% 29.98 in 8.0 mi Calm Calm - 0.00 in   Mostly Cloudy
6:53 PM 77.0 °F - 71.1 °F 82% 29.97 in 9.0 mi Calm Calm - N/A   Mostly Cloudy
7:13 PM 75.2 °F - 71.6 °F 89% 29.98 in 9.0 mi SE 4.6 mph - N/A   Mostly Cloudy
7:53 PM 75.9 °F - 71.1 °F 85% 29.98 in 9.0 mi Calm Calm - N/A   Overcast
8:13 PM 75.2 °F - 71.6 °F 89% 30.00 in 9.0 mi ESE 3.5 mph - N/A   Overcast
8:40 PM 75.2 °F - 71.6 °F 89% 29.99 in 6.0 mi ESE 5.8 mph - 0.00 in Rain Light Rain
8:53 PM 73.9 °F - 71.1 °F 91% 29.96 in 3.0 mi SE 5.8 mph - 0.00 in Rain Light Rain
8:57 PM 73.4 °F - 71.6 °F 94% 29.98 in 2.0 mi South 4.6 mph - 0.01 in Rain Light Rain
9:10 PM 73.4 °F - 71.6 °F 94% 29.98 in 3.0 mi SSE 4.6 mph - 0.02 in Rain Light Rain
9:53 PM 73.0 °F - 70.0 °F 90% 29.95 in 6.0 mi South 4.6 mph - 0.02 in   Mostly Cloudy
10:53 PM 73.0 °F - 70.0 °F 90% 29.98 in 6.0 mi SW 3.5 mph - N/A   Mostly Cloudy
11:53 PM 72.0 °F - 70.0 °F 93% 29.97 in 6.0 mi Calm Calm - N/A   Mostly Cloudy